Overview Statistics Trail Chart Weather Telemetry Raw packets
 

This is the latest recevied weather packets stored in our database for station/object OH6GKW. If no packets are shown the sender has not sent any weather packets the latest 10 day(s).

<< 77 78 79 80 81 82 83 >>
Time Temp. Humidity Pressure Rain* Wind** Luminosity Snow
1788103124 17.22° C 98% 1001.3 hPa 7.11 mm - 46 W/m² -
1788102812 17.22° C 98% 1001.5 hPa 6.86 mm - 37 W/m² -
1788102524 17.22° C 98% 1001.5 hPa 6.6 mm - 26 W/m² -
1788102219 17.22° C 98% 1001.5 hPa 6.35 mm - 18 W/m² -
1788101909 17.22° C 98% 1001.5 hPa 6.35 mm - 14 W/m² -
1788101636 17.22° C 98% 1001.5 hPa 6.35 mm - 11 W/m² -
1788101328 17.22° C 98% 1001.5 hPa 6.35 mm - 11 W/m² -
1788101021 17.22° C 98% 1001.2 hPa 6.35 mm - 18 W/m² -
1788100710 17.22° C 98% 1001.2 hPa 6.35 mm - 37 W/m² -
1788100425 17.22° C 98% 1001.2 hPa 6.35 mm - 14 W/m² -
1788100115 17.78° C 98% 1001.4 hPa 6.35 mm - 21 W/m² -
1788099817 17.78° C 96% 1001.4 hPa 4.32 mm - 14 W/m² -
1788099509 17.78° C 95% 1001.4 hPa 4.06 mm - 18 W/m² -
1788099223 17.78° C 94% 1001.3 hPa 4.06 mm - 18 W/m² -
1788098917 18.33° C 94% 1001.3 hPa 4.06 mm - 49 W/m² -
1788098616 18.33° C 93% 1001.3 hPa 4.06 mm - 58 W/m² -
1788098326 18.33° C 93% 1001.3 hPa 4.06 mm - 67 W/m² -
1788098033 18.33° C 93% 1001.3 hPa 4.06 mm - 74 W/m² -
1788097728 18.33° C 93% 1001.3 hPa 4.06 mm - 72 W/m² -
1788097422 18.89° C 92% 1001.2 hPa 4.06 mm - 70 W/m² -
1788097129 18.89° C 92% 1001.2 hPa 4.06 mm - 104 W/m² -
1788096823 18.89° C 92% 1001.2 hPa 4.06 mm - 135 W/m² -
1788096512 18.89° C 92% 1001.2 hPa 4.06 mm - 141 W/m² -
1788096226 18.89° C 92% 1001.2 hPa 4.06 mm - 107 W/m² -
1788095916 18.89° C 92% 1001.2 hPa 4.06 mm - 114 W/m² -

* Rain since midnight (hover to see other rain measurements)
** Current wind speed in m/s (hover to see current wind gust speed)